Year,Month,Day,Hour,Minute,Value (Times are PST for temperature in C)
2012,10,07,00,00,8.30
2012,10,07,00,01,8.30
2012,10,07,00,02,8.30
2012,10,07,00,03,8.30
2012,10,07,00,04,8.30
2012,10,07,00,05,8.30
2012,10,07,00,06,8.30
2012,10,07,00,07,8.30
2012,10,07,00,08,8.30
2012,10,07,00,09,8.30
2012,10,07,00,10,8.30
2012,10,07,00,11,8.30
2012,10,07,00,12,8.30
2012,10,07,00,13,8.30
2012,10,07,00,14,8.30
2012,10,07,00,15,8.30
2012,10,07,00,16,8.30
2012,10,07,00,17,8.30
2012,10,07,00,18,8.30
2012,10,07,00,19,8.30
2012,10,07,00,20,8.30
2012,10,07,00,21,8.20
2012,10,07,00,22,8.20
2012,10,07,00,23,8.20
2012,10,07,00,24,8.20
2012,10,07,00,25,8.20
2012,10,07,00,26,8.20
2012,10,07,00,27,8.20
2012,10,07,00,28,8.20
2012,10,07,00,29,8.20
2012,10,07,00,30,8.10
2012,10,07,00,31,8.10
2012,10,07,00,32,8.10
2012,10,07,00,33,8.10
2012,10,07,00,34,8.10
2012,10,07,00,35,8.10
2012,10,07,00,36,8.10
2012,10,07,00,37,8.10
2012,10,07,00,38,8.10
2012,10,07,00,39,8.10
2012,10,07,00,40,8.00
2012,10,07,00,41,8.00
2012,10,07,00,42,8.00
2012,10,07,00,43,8.00
2012,10,07,00,44,8.00
2012,10,07,00,45,8.00
2012,10,07,00,46,7.90
2012,10,07,00,47,7.90
2012,10,07,00,48,7.90
2012,10,07,00,49,7.90
2012,10,07,00,50,7.90
2012,10,07,00,51,7.90
2012,10,07,00,52,7.90
2012,10,07,00,53,7.90
2012,10,07,00,54,7.90
2012,10,07,00,55,7.90
2012,10,07,00,56,7.90
2012,10,07,00,57,7.90
2012,10,07,00,58,7.90
2012,10,07,00,59,7.90
2012,10,07,01,00,7.90
2012,10,07,01,01,7.90
2012,10,07,01,02,7.80
2012,10,07,01,03,7.80
2012,10,07,01,04,7.80
2012,10,07,01,05,7.80
2012,10,07,01,06,7.80
2012,10,07,01,07,7.80
2012,10,07,01,08,7.80
2012,10,07,01,09,7.80
2012,10,07,01,10,7.80
2012,10,07,01,11,7.80
2012,10,07,01,12,7.80
2012,10,07,01,13,7.80
2012,10,07,01,14,7.80
2012,10,07,01,15,7.80
2012,10,07,01,16,7.80
2012,10,07,01,17,7.80
2012,10,07,01,18,7.80
2012,10,07,01,19,7.80
2012,10,07,01,20,7.80
2012,10,07,01,21,7.80
2012,10,07,01,22,7.80
2012,10,07,01,23,7.80
2012,10,07,01,24,7.80
2012,10,07,01,25,7.80
2012,10,07,01,26,7.80
2012,10,07,01,27,7.80
2012,10,07,01,28,7.80
2012,10,07,01,29,7.80
2012,10,07,01,30,7.80
2012,10,07,01,31,7.80
2012,10,07,01,32,7.80
2012,10,07,01,33,7.70
2012,10,07,01,34,7.70
2012,10,07,01,35,7.70
2012,10,07,01,36,7.70
2012,10,07,01,37,7.70
2012,10,07,01,38,7.70
2012,10,07,01,39,7.70
2012,10,07,01,40,7.70
2012,10,07,01,41,7.70
2012,10,07,01,42,7.70
2012,10,07,01,43,7.70
2012,10,07,01,44,7.70
2012,10,07,01,45,7.60
2012,10,07,01,46,7.60
2012,10,07,01,47,7.60
2012,10,07,01,48,7.60
2012,10,07,01,49,7.60
2012,10,07,01,50,7.60
2012,10,07,01,51,7.60
2012,10,07,01,52,7.60
2012,10,07,01,53,7.60
2012,10,07,01,54,7.60
2012,10,07,01,55,7.60
2012,10,07,01,56,7.60
2012,10,07,01,57,7.60
2012,10,07,01,58,7.60
2012,10,07,01,59,7.60
2012,10,07,02,00,7.60
2012,10,07,02,01,7.60
2012,10,07,02,02,7.60
2012,10,07,02,03,7.60
2012,10,07,02,04,7.60
2012,10,07,02,05,7.60
2012,10,07,02,06,7.60
2012,10,07,02,07,7.60
2012,10,07,02,08,7.60
2012,10,07,02,09,7.60
2012,10,07,02,10,7.60
2012,10,07,02,11,7.50
2012,10,07,02,12,7.50
2012,10,07,02,13,7.50
2012,10,07,02,14,7.50
2012,10,07,02,15,7.50
2012,10,07,02,16,7.50
2012,10,07,02,17,7.50
2012,10,07,02,18,7.50
2012,10,07,02,19,7.40
2012,10,07,02,20,7.40
2012,10,07,02,21,7.40
2012,10,07,02,22,7.40
2012,10,07,02,23,7.40
2012,10,07,02,24,7.40
2012,10,07,02,25,7.40
2012,10,07,02,26,7.40
2012,10,07,02,27,7.40
2012,10,07,02,28,7.40
2012,10,07,02,29,7.40
2012,10,07,02,30,7.40
2012,10,07,02,31,7.40
2012,10,07,02,32,7.40
2012,10,07,02,33,7.40
2012,10,07,02,34,7.40
2012,10,07,02,35,7.40
2012,10,07,02,36,7.40
2012,10,07,02,37,7.40
2012,10,07,02,38,7.40
2012,10,07,02,39,7.40
2012,10,07,02,40,7.40
2012,10,07,02,41,7.40
2012,10,07,02,42,7.40
2012,10,07,02,43,7.40
2012,10,07,02,44,7.40
2012,10,07,02,45,7.40
2012,10,07,02,46,7.40
2012,10,07,02,47,7.40
2012,10,07,02,48,7.40
2012,10,07,02,49,7.40
2012,10,07,02,50,7.40
2012,10,07,02,51,7.40
2012,10,07,02,52,7.40
2012,10,07,02,53,7.40
2012,10,07,02,54,7.40
2012,10,07,02,55,7.40
2012,10,07,02,56,7.40
2012,10,07,02,57,7.40
2012,10,07,02,58,7.40
2012,10,07,02,59,7.40
2012,10,07,03,00,7.40
2012,10,07,03,01,7.40
2012,10,07,03,02,7.40
2012,10,07,03,03,7.40
2012,10,07,03,04,7.40
2012,10,07,03,05,7.40
2012,10,07,03,06,7.40
2012,10,07,03,07,7.40
2012,10,07,03,08,7.40
2012,10,07,03,09,7.40
2012,10,07,03,10,7.40
2012,10,07,03,11,7.40
2012,10,07,03,12,7.30
2012,10,07,03,13,7.40
2012,10,07,03,14,7.30
2012,10,07,03,15,7.30
2012,10,07,03,16,7.30
2012,10,07,03,17,7.30
2012,10,07,03,18,7.30
2012,10,07,03,19,7.30
2012,10,07,03,20,7.30
2012,10,07,03,21,7.30
2012,10,07,03,22,7.30
2012,10,07,03,23,7.30
2012,10,07,03,24,7.30
2012,10,07,03,25,7.30
2012,10,07,03,26,7.30
2012,10,07,03,27,7.30
2012,10,07,03,28,7.30
2012,10,07,03,29,7.30
2012,10,07,03,30,7.30
2012,10,07,03,31,7.30
2012,10,07,03,32,7.30
2012,10,07,03,33,7.30
2012,10,07,03,34,7.30
2012,10,07,03,35,7.30
2012,10,07,03,36,7.30
2012,10,07,03,37,7.30
2012,10,07,03,38,7.30
2012,10,07,03,39,7.30
2012,10,07,03,40,7.20
2012,10,07,03,41,7.20
2012,10,07,03,42,7.20
2012,10,07,03,43,7.20
2012,10,07,03,44,7.20
2012,10,07,03,45,7.20
2012,10,07,03,46,7.20
2012,10,07,03,47,7.20
2012,10,07,03,48,7.20
2012,10,07,03,49,7.20
2012,10,07,03,50,7.10
2012,10,07,03,51,7.10
2012,10,07,03,52,7.10
2012,10,07,03,53,7.10
2012,10,07,03,54,7.10
2012,10,07,03,55,7.10
2012,10,07,03,56,7.10
2012,10,07,03,57,7.10
2012,10,07,03,58,7.00
2012,10,07,03,59,7.00
2012,10,07,04,00,7.00
2012,10,07,04,01,7.00
2012,10,07,04,02,7.00
2012,10,07,04,03,7.00
2012,10,07,04,04,7.00
2012,10,07,04,05,7.00
2012,10,07,04,06,7.00
2012,10,07,04,07,7.00
2012,10,07,04,08,7.00
2012,10,07,04,09,7.00
2012,10,07,04,10,7.00
2012,10,07,04,11,6.90
2012,10,07,04,12,6.90
2012,10,07,04,13,6.90
2012,10,07,04,14,6.90
2012,10,07,04,15,6.90
2012,10,07,04,16,6.90
2012,10,07,04,17,6.90
2012,10,07,04,18,6.90
2012,10,07,04,19,6.90
2012,10,07,04,20,6.90
2012,10,07,04,21,6.90
2012,10,07,04,22,6.90
2012,10,07,04,23,6.90
2012,10,07,04,24,6.90
2012,10,07,04,25,6.90
2012,10,07,04,26,6.90
2012,10,07,04,27,6.90
2012,10,07,04,28,6.90
2012,10,07,04,29,6.90
2012,10,07,04,30,6.90
2012,10,07,04,31,6.90
2012,10,07,04,32,6.90
2012,10,07,04,33,6.90
2012,10,07,04,34,6.80
2012,10,07,04,35,6.80
2012,10,07,04,36,6.80
2012,10,07,04,37,6.80
2012,10,07,04,38,6.80
2012,10,07,04,39,6.80
2012,10,07,04,40,6.80
2012,10,07,04,41,6.80
2012,10,07,04,42,6.80
2012,10,07,04,43,6.80
2012,10,07,04,44,6.80
2012,10,07,04,45,6.70
2012,10,07,04,46,6.70
2012,10,07,04,47,6.70
2012,10,07,04,48,6.70
2012,10,07,04,49,6.70
2012,10,07,04,50,6.70
2012,10,07,04,51,6.70
2012,10,07,04,52,6.70
2012,10,07,04,53,6.70
2012,10,07,04,54,6.70
2012,10,07,04,55,6.70
2012,10,07,04,56,6.70
2012,10,07,04,57,6.70
2012,10,07,04,58,6.60
2012,10,07,04,59,6.60
2012,10,07,05,00,6.60
2012,10,07,05,01,6.60
2012,10,07,05,02,6.60
2012,10,07,05,03,6.60
2012,10,07,05,04,6.60
2012,10,07,05,05,6.60
2012,10,07,05,06,6.60
2012,10,07,05,07,6.60
2012,10,07,05,08,6.60
2012,10,07,05,09,6.60
2012,10,07,05,10,6.60
2012,10,07,05,11,6.60
2012,10,07,05,12,6.60
2012,10,07,05,13,6.60
2012,10,07,05,14,6.60
2012,10,07,05,15,6.60
2012,10,07,05,16,6.60
2012,10,07,05,17,6.60
2012,10,07,05,18,6.60
2012,10,07,05,19,6.60
2012,10,07,05,20,6.60
2012,10,07,05,21,6.60
2012,10,07,05,22,6.60
2012,10,07,05,23,6.60
2012,10,07,05,24,6.70
2012,10,07,05,25,6.70
2012,10,07,05,26,6.70
2012,10,07,05,27,6.70
2012,10,07,05,28,6.70
2012,10,07,05,29,6.70
2012,10,07,05,30,6.70
2012,10,07,05,31,6.70
2012,10,07,05,32,6.70
2012,10,07,05,33,6.70
2012,10,07,05,34,6.70
2012,10,07,05,35,6.70
2012,10,07,05,36,6.70
2012,10,07,05,37,6.70
2012,10,07,05,38,6.70
2012,10,07,05,39,6.70
2012,10,07,05,40,6.70
2012,10,07,05,41,6.70
2012,10,07,05,42,6.70
2012,10,07,05,43,6.70
2012,10,07,05,44,6.60
2012,10,07,05,45,6.60
2012,10,07,05,46,6.60
2012,10,07,05,47,6.60
2012,10,07,05,48,6.60
2012,10,07,05,49,6.60
2012,10,07,05,50,6.50
2012,10,07,05,51,6.50
2012,10,07,05,52,6.50
2012,10,07,05,53,6.50
2012,10,07,05,54,6.60
2012,10,07,05,55,6.60
2012,10,07,05,56,6.60
2012,10,07,05,57,6.60
2012,10,07,05,58,6.60
2012,10,07,05,59,6.60
2012,10,07,06,00,6.60
2012,10,07,06,01,6.60
2012,10,07,06,02,6.60
2012,10,07,06,03,6.60
2012,10,07,06,04,6.60
2012,10,07,06,05,6.60
2012,10,07,06,06,6.60
2012,10,07,06,07,6.60
2012,10,07,06,08,6.60
2012,10,07,06,09,6.60
2012,10,07,06,10,6.60
2012,10,07,06,11,6.60
2012,10,07,06,12,6.60
2012,10,07,06,13,6.60
2012,10,07,06,14,6.60
2012,10,07,06,15,6.60
2012,10,07,06,16,6.60
2012,10,07,06,17,6.60
2012,10,07,06,18,6.60
2012,10,07,06,19,6.60
2012,10,07,06,20,6.60
2012,10,07,06,21,6.60
2012,10,07,06,22,6.60
2012,10,07,06,23,6.60
2012,10,07,06,24,6.60
2012,10,07,06,25,6.60
2012,10,07,06,26,6.60
2012,10,07,06,27,6.60
2012,10,07,06,28,6.60
2012,10,07,06,29,6.60
2012,10,07,06,30,6.60
2012,10,07,06,31,6.60
2012,10,07,06,32,6.60
2012,10,07,06,33,6.60
2012,10,07,06,34,6.60
2012,10,07,06,35,6.60
2012,10,07,06,36,6.60
2012,10,07,06,37,6.60
2012,10,07,06,38,6.60
2012,10,07,06,39,6.60
2012,10,07,06,40,6.60
2012,10,07,06,41,6.60
2012,10,07,06,42,6.60
2012,10,07,06,43,6.60
2012,10,07,06,44,6.60
2012,10,07,06,45,6.60
2012,10,07,06,46,6.60
2012,10,07,06,47,6.60
2012,10,07,06,48,6.60
2012,10,07,06,49,6.60
2012,10,07,06,50,6.60
2012,10,07,06,51,6.60
2012,10,07,06,52,6.60
2012,10,07,06,53,6.60
2012,10,07,06,54,6.60
2012,10,07,06,55,6.60
2012,10,07,06,56,6.60
2012,10,07,06,57,6.60
2012,10,07,06,58,6.60
2012,10,07,06,59,6.60
2012,10,07,07,00,6.60
2012,10,07,07,01,6.60
2012,10,07,07,02,6.60
2012,10,07,07,03,6.60
2012,10,07,07,04,6.60
2012,10,07,07,05,6.60
2012,10,07,07,06,6.60
2012,10,07,07,07,6.60
2012,10,07,07,08,6.60
2012,10,07,07,09,6.60
2012,10,07,07,10,6.50
2012,10,07,07,11,6.50
2012,10,07,07,12,6.50
2012,10,07,07,13,6.50
2012,10,07,07,14,6.50
2012,10,07,07,15,6.50
2012,10,07,07,16,6.50
2012,10,07,07,17,6.50
2012,10,07,07,18,6.50
2012,10,07,07,19,6.50
2012,10,07,07,20,6.50
2012,10,07,07,21,6.50
2012,10,07,07,22,6.50
2012,10,07,07,23,6.50
2012,10,07,07,24,6.50
2012,10,07,07,25,6.50
2012,10,07,07,26,6.50
2012,10,07,07,27,6.50
2012,10,07,07,28,6.50
2012,10,07,07,29,6.50
2012,10,07,07,30,6.50
2012,10,07,07,31,6.50
2012,10,07,07,32,6.50
2012,10,07,07,33,6.50
2012,10,07,07,34,6.50
2012,10,07,07,35,6.50
2012,10,07,07,36,6.50
2012,10,07,07,37,6.50
2012,10,07,07,38,6.50
2012,10,07,07,39,6.50
2012,10,07,07,40,6.50
2012,10,07,07,41,6.50
2012,10,07,07,42,6.60
2012,10,07,07,43,6.60
2012,10,07,07,44,6.60
2012,10,07,07,45,6.60
2012,10,07,07,46,6.60
2012,10,07,07,47,6.60
2012,10,07,07,48,6.70
2012,10,07,07,49,6.70
2012,10,07,07,50,6.70
2012,10,07,07,51,6.70
2012,10,07,07,52,6.70
2012,10,07,07,53,6.70
2012,10,07,07,54,6.70
2012,10,07,07,55,6.80
2012,10,07,07,56,6.80
2012,10,07,07,57,6.80
2012,10,07,07,58,6.80
2012,10,07,07,59,6.80
2012,10,07,08,00,6.80
2012,10,07,08,01,6.80
2012,10,07,08,02,6.80
2012,10,07,08,03,6.80
2012,10,07,08,04,6.90
2012,10,07,08,05,6.90
2012,10,07,08,06,6.90
2012,10,07,08,07,7.00
2012,10,07,08,08,7.00
2012,10,07,08,09,7.00
2012,10,07,08,10,7.10
2012,10,07,08,11,7.10
2012,10,07,08,12,7.10
2012,10,07,08,13,7.10
2012,10,07,08,14,7.20
2012,10,07,08,15,7.20
2012,10,07,08,16,7.20
2012,10,07,08,17,7.30
2012,10,07,08,18,7.30
2012,10,07,08,19,7.30
2012,10,07,08,20,7.40
2012,10,07,08,21,7.40
2012,10,07,08,22,7.40
2012,10,07,08,23,7.50
2012,10,07,08,24,7.50
2012,10,07,08,25,7.60
2012,10,07,08,26,7.60
2012,10,07,08,27,7.70
2012,10,07,08,28,7.70
2012,10,07,08,29,7.80
2012,10,07,08,30,7.80
2012,10,07,08,31,7.90
2012,10,07,08,32,8.00
2012,10,07,08,33,8.10
2012,10,07,08,34,8.10
2012,10,07,08,35,8.20
2012,10,07,08,36,8.30
2012,10,07,08,37,8.30
2012,10,07,08,38,8.40
2012,10,07,08,39,8.50
2012,10,07,08,40,8.60
2012,10,07,08,41,8.60
2012,10,07,08,42,8.70
2012,10,07,08,43,8.80
2012,10,07,08,44,8.90
2012,10,07,08,45,9.00
2012,10,07,08,46,9.10
2012,10,07,08,47,9.20
2012,10,07,08,48,9.30
2012,10,07,08,49,9.40
2012,10,07,08,50,9.40
2012,10,07,08,51,9.50
2012,10,07,08,52,9.60
2012,10,07,08,53,9.70
2012,10,07,08,54,9.70
2012,10,07,08,55,9.80
2012,10,07,08,56,9.90
2012,10,07,08,57,10.00
2012,10,07,08,58,10.10
2012,10,07,08,59,10.20
2012,10,07,09,00,10.20
2012,10,07,09,01,10.30
2012,10,07,09,02,10.40
2012,10,07,09,03,10.50
2012,10,07,09,04,10.60
2012,10,07,09,05,10.70
2012,10,07,09,06,10.80
2012,10,07,09,07,10.90
2012,10,07,09,08,11.00
2012,10,07,09,09,11.10
2012,10,07,09,10,11.20
2012,10,07,09,11,11.40
2012,10,07,09,12,11.50
2012,10,07,09,13,11.70
2012,10,07,09,14,11.90
2012,10,07,09,15,12.10
2012,10,07,09,16,12.20
2012,10,07,09,17,12.40
2012,10,07,09,18,12.50
2012,10,07,09,19,12.60
2012,10,07,09,20,12.70
2012,10,07,09,21,12.80
2012,10,07,09,22,12.90
2012,10,07,09,23,12.90
2012,10,07,09,24,13.00
2012,10,07,09,25,13.10
2012,10,07,09,26,13.20
2012,10,07,09,27,13.20
2012,10,07,09,28,13.30
2012,10,07,09,29,13.30
2012,10,07,09,30,13.40
2012,10,07,09,31,13.50
2012,10,07,09,32,13.50
2012,10,07,09,33,13.60
2012,10,07,09,34,13.70
2012,10,07,09,35,13.70
2012,10,07,09,36,13.80
2012,10,07,09,37,13.80
2012,10,07,09,38,13.90
2012,10,07,09,39,13.90
2012,10,07,09,40,14.00
2012,10,07,09,41,14.00
2012,10,07,09,42,14.10
2012,10,07,09,43,14.10
2012,10,07,09,44,14.20
2012,10,07,09,45,14.20
2012,10,07,09,46,14.30
2012,10,07,09,47,14.30
2012,10,07,09,48,14.40
2012,10,07,09,49,14.40
2012,10,07,09,50,14.50
2012,10,07,09,51,14.60
2012,10,07,09,52,14.60
2012,10,07,09,53,14.60
2012,10,07,09,54,14.70
2012,10,07,09,55,14.70
2012,10,07,09,56,14.70
2012,10,07,09,57,14.80
2012,10,07,09,58,14.80
2012,10,07,09,59,14.80
2012,10,07,10,00,14.90
2012,10,07,10,01,14.90
2012,10,07,10,02,14.90
2012,10,07,10,03,15.00
2012,10,07,10,04,15.00
2012,10,07,10,05,15.10
2012,10,07,10,06,15.10
2012,10,07,10,07,15.10
2012,10,07,10,08,15.20
2012,10,07,10,09,15.20
2012,10,07,10,10,15.20
2012,10,07,10,11,15.20
2012,10,07,10,12,15.30
2012,10,07,10,13,15.30
2012,10,07,10,14,15.30
2012,10,07,10,15,15.30
2012,10,07,10,16,15.30
2012,10,07,10,17,15.30
2012,10,07,10,18,15.30
2012,10,07,10,19,15.30
2012,10,07,10,20,15.30
2012,10,07,10,21,15.30
2012,10,07,10,22,15.30
2012,10,07,10,23,15.30
2012,10,07,10,24,15.40
2012,10,07,10,25,15.40
2012,10,07,10,26,15.40
2012,10,07,10,27,15.40
2012,10,07,10,28,15.40
2012,10,07,10,29,15.40
2012,10,07,10,30,15.50
2012,10,07,10,31,15.50
2012,10,07,10,32,15.50
2012,10,07,10,33,15.60
2012,10,07,10,34,15.60
2012,10,07,10,35,15.60
2012,10,07,10,36,15.60
2012,10,07,10,37,15.70
2012,10,07,10,38,15.70
2012,10,07,10,39,15.70
2012,10,07,10,40,15.70
2012,10,07,10,41,15.70
2012,10,07,10,42,15.70
2012,10,07,10,43,15.80
2012,10,07,10,44,15.80
2012,10,07,10,45,15.80
2012,10,07,10,46,15.80
2012,10,07,10,47,15.80
2012,10,07,10,48,15.80
2012,10,07,10,49,15.80
2012,10,07,10,50,15.80
2012,10,07,10,51,15.80
2012,10,07,10,52,15.80
2012,10,07,10,53,15.80
2012,10,07,10,54,15.80
2012,10,07,10,55,15.80
2012,10,07,10,56,15.80
2012,10,07,10,57,15.80
2012,10,07,10,58,15.80
2012,10,07,10,59,15.80
2012,10,07,11,00,15.80
2012,10,07,11,01,15.80
2012,10,07,11,02,15.80
2012,10,07,11,03,15.90
2012,10,07,11,04,15.90
2012,10,07,11,05,15.90
2012,10,07,11,06,16.00
2012,10,07,11,07,16.00
2012,10,07,11,08,16.10
2012,10,07,11,09,16.10
2012,10,07,11,10,16.10
2012,10,07,11,11,16.10
2012,10,07,11,12,16.10
2012,10,07,11,13,16.10
2012,10,07,11,14,16.20
2012,10,07,11,15,16.20
2012,10,07,11,16,16.20
2012,10,07,11,17,16.20
2012,10,07,11,18,16.20
2012,10,07,11,19,16.20
2012,10,07,11,20,16.30
2012,10,07,11,21,16.30
2012,10,07,11,22,16.30
2012,10,07,11,23,16.30
2012,10,07,11,24,16.40
2012,10,07,11,25,16.40
2012,10,07,11,26,16.40
2012,10,07,11,27,16.40
2012,10,07,11,28,16.50
2012,10,07,11,29,16.50
2012,10,07,11,30,16.50
2012,10,07,11,31,16.60
2012,10,07,11,32,16.60
2012,10,07,11,33,16.70
2012,10,07,11,34,16.70
2012,10,07,11,35,16.80
2012,10,07,11,36,16.80
2012,10,07,11,37,16.90
2012,10,07,11,38,17.00
2012,10,07,11,39,17.10
2012,10,07,11,40,17.10
2012,10,07,11,41,17.20
2012,10,07,11,42,17.20
2012,10,07,11,43,17.20
2012,10,07,11,44,17.30
2012,10,07,11,45,17.30
2012,10,07,11,46,17.30
2012,10,07,11,47,17.30
2012,10,07,11,48,17.30
2012,10,07,11,49,17.30
2012,10,07,11,50,17.40
2012,10,07,11,51,17.40
2012,10,07,11,52,17.40
2012,10,07,11,53,17.40
2012,10,07,11,54,17.40
2012,10,07,11,55,17.40
2012,10,07,11,56,17.40
2012,10,07,11,57,17.50
2012,10,07,11,58,17.50
2012,10,07,11,59,17.50
2012,10,07,12,00,17.50
2012,10,07,12,01,17.60
2012,10,07,12,02,17.60
2012,10,07,12,03,17.70
2012,10,07,12,04,17.70
2012,10,07,12,05,17.70
2012,10,07,12,06,17.70
2012,10,07,12,07,17.80
2012,10,07,12,08,17.80
2012,10,07,12,09,17.80
2012,10,07,12,10,17.80
2012,10,07,12,11,17.80
2012,10,07,12,12,17.80
2012,10,07,12,13,17.80
2012,10,07,12,14,17.80
2012,10,07,12,15,17.90
2012,10,07,12,16,17.90
2012,10,07,12,17,17.90
2012,10,07,12,18,17.90
2012,10,07,12,19,17.90
2012,10,07,12,20,17.90
2012,10,07,12,21,18.00
2012,10,07,12,22,18.00
2012,10,07,12,23,17.90
2012,10,07,12,24,17.90
2012,10,07,12,25,17.90
2012,10,07,12,26,17.90
2012,10,07,12,27,17.80
2012,10,07,12,28,17.80
2012,10,07,12,29,17.70
2012,10,07,12,30,17.70
2012,10,07,12,31,17.70
2012,10,07,12,32,17.60
2012,10,07,12,33,17.60
2012,10,07,12,34,17.60
2012,10,07,12,35,17.60
2012,10,07,12,36,17.70
2012,10,07,12,37,17.70
2012,10,07,12,38,17.80
2012,10,07,12,39,17.80
2012,10,07,12,40,17.80
2012,10,07,12,41,17.90
2012,10,07,12,42,17.90
2012,10,07,12,43,17.90
2012,10,07,12,44,17.90
2012,10,07,12,45,17.90
2012,10,07,12,46,17.90
2012,10,07,12,47,17.90
2012,10,07,12,48,18.00
2012,10,07,12,49,18.10
2012,10,07,12,50,18.10
2012,10,07,12,51,18.10
2012,10,07,12,52,18.10
2012,10,07,12,53,18.10
2012,10,07,12,54,18.20
2012,10,07,12,55,18.20
2012,10,07,12,56,18.20
2012,10,07,12,57,18.20
2012,10,07,12,58,18.20
2012,10,07,12,59,18.20
2012,10,07,13,00,18.20
2012,10,07,13,01,18.20
2012,10,07,13,02,18.20
2012,10,07,13,03,18.30
2012,10,07,13,04,18.30
2012,10,07,13,05,18.30
2012,10,07,13,06,18.30
2012,10,07,13,07,18.30
2012,10,07,13,08,18.30
2012,10,07,13,09,18.30
2012,10,07,13,10,18.40
2012,10,07,13,11,18.40
2012,10,07,13,12,18.50
2012,10,07,13,13,18.50
2012,10,07,13,14,18.60
2012,10,07,13,15,18.60
2012,10,07,13,16,18.60
2012,10,07,13,17,18.60
2012,10,07,13,18,18.60
2012,10,07,13,19,18.60
2012,10,07,13,20,18.60
2012,10,07,13,21,18.60
2012,10,07,13,22,18.60
2012,10,07,13,23,18.60
2012,10,07,13,24,18.60
2012,10,07,13,25,18.60
2012,10,07,13,26,18.60
2012,10,07,13,27,18.60
2012,10,07,13,28,18.60
2012,10,07,13,29,18.70
2012,10,07,13,30,18.70
2012,10,07,13,31,18.80
2012,10,07,13,32,18.80
2012,10,07,13,33,18.80
2012,10,07,13,34,18.90
2012,10,07,13,35,18.90
2012,10,07,13,36,19.00
2012,10,07,13,37,19.00
2012,10,07,13,38,19.10
2012,10,07,13,39,19.10
2012,10,07,13,40,19.10
2012,10,07,13,41,19.10
2012,10,07,13,42,19.10
2012,10,07,13,43,19.20
2012,10,07,13,44,19.30
2012,10,07,13,45,19.30
2012,10,07,13,46,19.40
2012,10,07,13,47,19.50
2012,10,07,13,48,19.60
2012,10,07,13,49,19.70
2012,10,07,13,50,19.80
2012,10,07,13,51,19.80
2012,10,07,13,52,19.80
2012,10,07,13,53,19.80
2012,10,07,13,54,19.80
2012,10,07,13,55,19.80
2012,10,07,13,56,19.80
2012,10,07,13,57,19.90
2012,10,07,13,58,19.90
2012,10,07,13,59,19.90
2012,10,07,14,00,20.00
2012,10,07,14,01,20.00
2012,10,07,14,02,20.10
2012,10,07,14,03,20.10
2012,10,07,14,04,20.10
2012,10,07,14,05,20.10
2012,10,07,14,06,20.10
2012,10,07,14,07,20.20
2012,10,07,14,08,20.10
2012,10,07,14,09,20.20
2012,10,07,14,10,20.20
2012,10,07,14,11,20.20
2012,10,07,14,12,20.20
2012,10,07,14,13,20.30
2012,10,07,14,14,20.30
2012,10,07,14,15,20.40
2012,10,07,14,16,20.40
2012,10,07,14,17,20.40
2012,10,07,14,18,20.50
2012,10,07,14,19,20.60
2012,10,07,14,20,20.60
2012,10,07,14,21,20.70
2012,10,07,14,22,20.70
2012,10,07,14,23,20.80
2012,10,07,14,24,20.80
2012,10,07,14,25,20.80
2012,10,07,14,26,20.80
2012,10,07,14,27,20.80
2012,10,07,14,28,20.80
2012,10,07,14,29,20.80
2012,10,07,14,30,20.80
2012,10,07,14,31,20.80
2012,10,07,14,32,20.80
2012,10,07,14,33,20.90
2012,10,07,14,34,21.00
2012,10,07,14,35,21.00
2012,10,07,14,36,21.10
2012,10,07,14,37,21.10
2012,10,07,14,38,21.10
2012,10,07,14,39,21.10
2012,10,07,14,40,21.10
2012,10,07,14,41,21.10
2012,10,07,14,42,21.10
2012,10,07,14,43,21.10
2012,10,07,14,44,21.10
2012,10,07,14,45,21.10
2012,10,07,14,46,21.10
2012,10,07,14,47,21.10
2012,10,07,14,48,21.10
2012,10,07,14,49,21.10
2012,10,07,14,50,21.10
2012,10,07,14,51,21.10
2012,10,07,14,52,21.10
2012,10,07,14,53,21.10
2012,10,07,14,54,21.10
2012,10,07,14,55,21.10
2012,10,07,14,56,21.10
2012,10,07,14,57,21.10
2012,10,07,14,58,21.10
2012,10,07,14,59,21.10
2012,10,07,15,00,21.20
2012,10,07,15,01,21.20
2012,10,07,15,02,21.20
2012,10,07,15,03,21.30
2012,10,07,15,04,21.30
2012,10,07,15,05,21.30
2012,10,07,15,06,21.30
2012,10,07,15,07,21.40
2012,10,07,15,08,21.40
2012,10,07,15,09,21.40
2012,10,07,15,10,21.40
2012,10,07,15,11,21.40
2012,10,07,15,12,21.40
2012,10,07,15,13,21.40
2012,10,07,15,14,21.40
2012,10,07,15,15,21.40
2012,10,07,15,16,21.40
2012,10,07,15,17,21.40
2012,10,07,15,18,21.30
2012,10,07,15,19,21.30
2012,10,07,15,20,21.30
2012,10,07,15,21,21.30
2012,10,07,15,22,21.20
2012,10,07,15,23,21.20
2012,10,07,15,24,21.20
2012,10,07,15,25,21.20
2012,10,07,15,26,21.20
2012,10,07,15,27,21.20
2012,10,07,15,28,21.20
2012,10,07,15,29,21.20
2012,10,07,15,30,21.10
2012,10,07,15,31,21.10
2012,10,07,15,32,21.00
2012,10,07,15,33,21.00
2012,10,07,15,34,20.90
2012,10,07,15,35,20.90
2012,10,07,15,36,20.80
2012,10,07,15,37,20.80
2012,10,07,15,38,20.70
2012,10,07,15,39,20.70
2012,10,07,15,40,20.70
2012,10,07,15,41,20.70
2012,10,07,15,42,20.70
2012,10,07,15,43,20.70
2012,10,07,15,44,20.70
2012,10,07,15,45,20.70
2012,10,07,15,46,20.70
2012,10,07,15,47,20.60
2012,10,07,15,48,20.60
2012,10,07,15,49,20.60
2012,10,07,15,50,20.60
2012,10,07,15,51,20.60
2012,10,07,15,52,20.70
2012,10,07,15,53,20.70
2012,10,07,15,54,20.70
2012,10,07,15,55,20.80
2012,10,07,15,56,20.80
2012,10,07,15,57,20.80
2012,10,07,15,58,20.80
2012,10,07,15,59,20.90
2012,10,07,16,00,20.90
2012,10,07,16,01,20.90
2012,10,07,16,02,21.00
2012,10,07,16,03,21.00
2012,10,07,16,04,21.00
2012,10,07,16,05,21.10
2012,10,07,16,06,21.20
2012,10,07,16,07,21.20
2012,10,07,16,08,21.20
2012,10,07,16,09,21.20
2012,10,07,16,10,21.20
2012,10,07,16,11,21.20
2012,10,07,16,12,21.20
2012,10,07,16,13,21.20
2012,10,07,16,14,21.20
2012,10,07,16,15,21.20
2012,10,07,16,16,21.30
2012,10,07,16,17,21.30
2012,10,07,16,18,21.30
2012,10,07,16,19,21.30
2012,10,07,16,20,21.30
2012,10,07,16,21,21.40
2012,10,07,16,22,21.40
2012,10,07,16,23,21.40
2012,10,07,16,24,21.40
2012,10,07,16,25,21.40
2012,10,07,16,26,21.40
2012,10,07,16,27,21.40
2012,10,07,16,28,21.40
2012,10,07,16,29,21.40
2012,10,07,16,30,21.40
2012,10,07,16,31,21.30
2012,10,07,16,32,21.30
2012,10,07,16,33,21.30
2012,10,07,16,34,21.30
2012,10,07,16,35,21.30
2012,10,07,16,36,21.30
2012,10,07,16,37,21.20
2012,10,07,16,38,21.20
2012,10,07,16,39,21.10
2012,10,07,16,40,21.10
2012,10,07,16,41,21.00
2012,10,07,16,42,21.00
2012,10,07,16,43,20.90
2012,10,07,16,44,20.90
2012,10,07,16,45,20.80
2012,10,07,16,46,20.80
2012,10,07,16,47,20.70
2012,10,07,16,48,20.70
2012,10,07,16,49,20.70
2012,10,07,16,50,20.70
2012,10,07,16,51,20.70
2012,10,07,16,52,20.70
2012,10,07,16,53,20.70
2012,10,07,16,54,20.70
2012,10,07,16,55,20.70
2012,10,07,16,56,20.70
2012,10,07,16,57,20.70
2012,10,07,16,58,20.70
2012,10,07,16,59,20.80
2012,10,07,17,00,20.80
2012,10,07,17,01,20.80
2012,10,07,17,02,20.80
2012,10,07,17,03,20.80
2012,10,07,17,04,20.80
2012,10,07,17,05,20.90
2012,10,07,17,06,20.90
2012,10,07,17,07,20.90
2012,10,07,17,08,20.90
2012,10,07,17,09,20.90
2012,10,07,17,10,20.90
2012,10,07,17,11,20.90
2012,10,07,17,12,20.90
2012,10,07,17,13,20.80
2012,10,07,17,14,20.80
2012,10,07,17,15,20.80
2012,10,07,17,16,20.70
2012,10,07,17,17,20.70
2012,10,07,17,18,20.70
2012,10,07,17,19,20.70
2012,10,07,17,20,20.60
2012,10,07,17,21,20.60
2012,10,07,17,22,20.50
2012,10,07,17,23,20.40
2012,10,07,17,24,20.40
2012,10,07,17,25,20.40
2012,10,07,17,26,20.30
2012,10,07,17,27,20.30
2012,10,07,17,28,20.30
2012,10,07,17,29,20.30
2012,10,07,17,30,20.20
2012,10,07,17,31,20.20
2012,10,07,17,32,20.20
2012,10,07,17,33,20.10
2012,10,07,17,34,20.10
2012,10,07,17,35,20.10
2012,10,07,17,36,20.00
2012,10,07,17,37,20.00
2012,10,07,17,38,19.90
2012,10,07,17,39,19.90
2012,10,07,17,40,19.80
2012,10,07,17,41,19.80
2012,10,07,17,42,19.70